EW1710 Weather Reports


Display with metric or nautical units.
time (UTC)temp
F
wind
direction
speed
MPH
gust
MPH
rain 1hr
in
rain 24hr
in
rain mn
in
humidity
%
barometer
mb
20260502170138 44 63 1.0 1.0 0.00 0.13 0.13 65 1018.9
20260502164125 42 14 2.0 2.0 0.00 0.13 0.13 71 1019.2
20260502163621 41 147 1.0 1.0 0.00 0.13 0.13 73 1019.2
20260502163117 41 71 5.0 6.0 0.00 0.13 0.13 73 1019.1
20260502162614 42 33 0.0 0.0 0.00 0.13 0.13 75 1019.2
20260502162112 41 4 1.0 1.0 0.00 0.13 0.13 78 1019.1
20260502161608 40 26 2.0 2.0 0.00 0.13 0.13 79 1019.1
20260502161106 40 354 1.0 1.0 0.00 0.13 0.13 81 1019.0
20260502160604 39 53 0.0 0.0 0.00 0.13 0.13 83 1019.1
20260502152016 39 74 0.0 0.0 0.00 0.13 0.13 87 1018.9
20260502151513 39 71 1.0 1.0 0.00 0.13 0.13 87 1018.8
20260502151011 39 40 0.0 0.0 0.00 0.13 0.13 88 1018.9
20260502150508 38 109 0.0 0.0 0.00 0.13 0.13 89 1018.8
20260502130347 37 35 1.0 1.0 0.00 0.12 0.12 93 1017.9
20260502123330 37 35 1.0 1.0 0.00 0.12 0.12 93 1017.9
20260502122827 37 66 0.0 0.0 0.00 0.12 0.12 92 1017.9
20260502122322 37 66 0.0 0.0 0.00 0.12 0.12 92 1018.0
20260502121821 37 75 0.0 0.0 0.00 0.12 0.12 92 1018.0
20260502121318 37 81 1.0 1.0 0.00 0.12 0.12 92 1018.0
20260502120815 37 92 0.0 0.0 0.00 0.12 0.12 93 1017.7
20260502120311 37 89 0.0 0.0 0.00 0.12 0.12 93 1017.6
20260502115809 38 81 0.0 0.0 0.00 0.12 0.12 94 1017.6
20260502115306 38 39 0.0 1.0 0.00 0.12 0.12 96 1017.6
20260502114802 37 53 0.0 0.0 0.00 0.12 0.12 96 1017.4
20260502114259 37 47 0.0 0.0 0.00 0.12 0.12 96 1017.6
20260502113756 37 54 0.0 0.0 0.00 0.12 0.12 96 1017.3
20260502113254 36 78 0.0 0.0 0.00 0.12 0.12 96 1017.3
20260502112752 36 45 0.0 0.0 0.00 0.12 0.12 96 1017.5
20260502112249 36 56 1.0 1.0 0.00 0.12 0.12 96 1017.5
20260502111746 36 44 0.0 0.0 0.00 0.12 0.12 96 1017.5
20260502111243 36 45 0.0 0.0 0.00 0.12 0.12 96 1017.5
20260502110741 36 45 0.0 0.0 0.00 0.12 0.12 96 1017.6
20260502110238 36 46 0.0 0.0 0.00 0.12 0.12 96 1017.5
20260502105737 36 46 0.0 0.0 0.00 0.12 0.12 96 1017.6
20260502105232 36 46 0.0 0.0 0.00 0.12 0.12 96 1017.3
20260502104731 36 46 0.0 0.0 0.00 0.12 0.12 96 1017.5
20260502104228 35 42 0.0 1.0 0.00 0.12 0.12 96 1017.4
20260502103725 36 33 0.0 0.0 0.00 0.12 0.12 96 1017.4
20260502103223 36 32 1.0 1.0 0.00 0.12 0.12 96 1017.3
20260502102719 36 17 1.0 1.0 0.00 0.12 0.12 96 1017.2
20260502102216 36 28 0.0 0.0 0.00 0.12 0.12 96 1017.5
20260502101714 36 28 0.0 0.0 0.00 0.12 0.12 96 1017.3
20260502101212 36 29 1.0 1.0 0.00 0.12 0.12 96 1017.0
20260502100710 36 26 0.0 0.0 0.00 0.12 0.12 96 1017.0
20260502100208 37 15 1.0 1.0 0.00 0.12 0.12 96 1017.0
20260502091142 38 89 0.0 0.0 0.00 0.11 0.11 96 1016.9
20260502090639 38 89 0.0 0.0 0.07 0.11 0.11 96 1016.9
20260502090136 38 89 1.0 1.0 0.07 0.11 0.11 96 1016.7
20260502071534 38 116 0.0 0.0 0.00 0.09 0.09 96 1016.9
20260502071032 38 116 0.0 0.0 0.00 0.09 0.09 96 1016.8
20260502070530 38 116 0.0 0.0 0.00 0.09 0.09 96 1016.8
20260502070028 38 116 0.0 0.0 0.00 0.09 0.09 96 1016.8
20260502065526 38 116 0.0 0.0 0.00 0.09 0.09 96 1016.9
20260502065023 38 116 0.0 0.0 0.00 0.09 0.09 96 1016.9
20260502064521 38 116 0.0 0.0 0.00 0.09 0.09 96 1016.9
20260502064017 38 132 0.0 0.0 0.00 0.09 0.09 96 1017.1
20260502063515 38 154 0.0 0.0 0.00 0.09 0.09 96 1016.9
20260502063013 38 173 0.0 0.0 0.00 0.09 0.09 96 1016.9
20260502062509 38 204 0.0 0.0 0.00 0.09 0.09 96 1017.0
20260502062008 38 204 0.0 0.0 0.00 0.09 0.09 96 1017.0
20260502061506 38 204 0.0 0.0 0.00 0.09 0.09 95 1017.1
20260502061002 38 205 0.0 0.0 0.00 0.09 0.09 95 1017.0
20260502060457 38 230 0.0 0.0 0.00 0.09 0.09 95 1017.1
20260502055954 38 231 0.0 0.0 0.00 0.09 0.09 95 1017.1
20260502055452 38 237 0.0 0.0 0.00 0.09 0.09 95 1017.2
20260502054946 38 237 0.0 0.0 0.00 0.09 0.09 95 1017.1
20260502054444 38 246 0.0 0.0 0.00 0.09 0.09 95 1017.3
20260502053941 38 246 0.0 0.0 0.00 0.09 0.09 95 1017.3
20260502053438 38 246 0.0 0.0 0.00 0.09 0.09 95 1017.5
20260502052936 38 247 0.0 0.0 0.00 0.09 0.09 94 1017.6
20260502052434 38 299 0.0 0.0 0.00 0.09 0.09 94 1017.7
20260502051932 38 318 0.0 0.0 0.07 0.09 0.09 94 1017.6
20260502051430 38 318 0.0 0.0 0.12 0.09 0.09 94 1017.6
20260502050927 38 321 0.0 0.0 0.05 0.08 0.08 95 1017.7
20260502050423 38 283 0.0 0.0 0.00 0.07 0.07 95 1017.8
20260502045920 39 336 0.0 0.0 0.07 0.07 0.07 95 1017.8
20260502045417 39 351 0.0 0.0 0.19 0.07 0.07 95 1017.9
20260502044914 39 340 0.0 0.0 0.17 0.06 0.06 95 1017.8
20260502044409 39 330 1.0 1.0 0.12 0.04 0.04 94 1018.1
20260502043907 39 332 1.0 1.0 0.07 0.03 0.03 94 1018.0
20260502043405 39 280 1.0 1.0 0.00 0.02 0.02 94 1018.1
20260502042904 39 315 0.0 0.0 0.07 0.02 0.02 94 1017.8
20260502042401 39 312 1.0 1.0 0.07 0.02 0.02 94 1017.7
20260502041858 39 312 1.0 1.0 0.00 0.01 0.01 94 1017.7
20260502041356 39 317 0.0 0.0 0.05 0.01 0.01 94 1017.8
20260502040853 39 339 0.0 0.0 0.05 0.01 0.01 94 1018.0
20260502040350 40 305 2.0 2.0 0.00 0.00 0.00 94 1018.0
20260502035846 40 325 1.0 1.0 0.00 0.43 0.43 95 1017.7
20260502035343 40 357 1.0 1.0 0.00 0.43 0.43 95 1017.7
20260502034840 40 39 0.0 0.0 0.07 0.43 0.43 95 1017.9
20260502034338 40 39 0.0 0.0 0.07 0.43 0.43 95 1017.9
20260502033836 40 39 0.0 0.0 0.00 0.42 0.42 95 1017.7
20260502033334 40 49 1.0 1.0 0.00 0.42 0.42 95 1017.6
20260502032830 40 50 0.0 0.0 0.00 0.42 0.42 95 1017.3
20260502032326 40 50 0.0 0.0 0.00 0.42 0.42 95 1017.6
20260502031824 40 50 0.0 0.0 0.00 0.42 0.42 95 1017.4
20260502031322 40 50 0.0 0.0 0.00 0.42 0.42 95 1017.4
20260502030820 40 50 0.0 0.0 0.00 0.42 0.42 94 1017.3
20260502030318 40 50 0.0 0.0 0.00 0.42 0.42 94 1017.2
20260502025815 40 50 0.0 0.0 0.00 0.42 0.42 94 1017.3
20260502025313 40 50 0.0 0.0 0.00 0.42 0.42 94 1017.0
20260502024811 40 50 0.0 0.0 0.00 0.42 0.42 94 1017.1
20260502024308 39 50 0.0 0.0 0.00 0.42 0.42 94 1017.4
20260502023806 40 50 0.0 0.0 0.00 0.42 0.42 94 1017.1
20260502023304 40 50 0.0 0.0 0.00 0.42 0.42 94 1017.4
20260502022801 39 50 0.0 0.0 0.00 0.42 0.42 94 1017.2
20260502022257 39 49 0.0 0.0 0.00 0.42 0.42 94 1017.4
20260502021754 39 49 0.0 0.0 0.00 0.42 0.42 94 1017.3
20260502021251 39 49 0.0 0.0 0.00 0.42 0.42 94 1017.6
20260502020749 39 49 0.0 0.0 0.00 0.42 0.42 94 1017.1
20260502020246 39 49 0.0 0.0 0.00 0.42 0.42 93 1017.2
20260502015743 39 49 0.0 0.0 0.00 0.42 0.42 94 1017.1
20260502015239 39 49 0.0 0.0 0.00 0.42 0.42 94 1017.1
20260502014737 39 49 0.0 0.0 0.00 0.42 0.42 94 1017.0
20260502014234 39 325 0.0 0.0 0.00 0.42 0.42 94 1017.2
20260502013730 39 323 0.0 0.0 0.00 0.42 0.42 94 1017.0
20260502013226 39 323 0.0 0.0 0.00 0.42 0.42 94 1017.1
20260502012723 38 323 0.0 0.0 0.00 0.42 0.42 94 1017.1
20260502012221 38 323 0.0 0.0 0.00 0.42 0.42 93 1017.0
20260502011718 38 323 0.0 0.0 0.00 0.42 0.42 93 1016.7
20260502011213 38 323 0.0 0.0 0.00 0.42 0.42 92 1016.9
20260502010712 38 323 0.0 0.0 0.00 0.42 0.42 92 1016.6
20260502010207 38 323 0.0 0.0 0.00 0.42 0.42 91 1016.8
20260502005704 39 323 0.0 0.0 0.00 0.42 0.42 91 1016.6
20260502005202 39 323 0.0 0.0 0.00 0.42 0.42 91 1016.8
20260502004658 39 323 0.0 0.0 0.00 0.42 0.42 90 1016.6
20260502004155 39 323 0.0 0.0 0.00 0.42 0.42 90 1016.6
20260502003653 39 323 0.0 0.0 0.00 0.42 0.42 90 1016.5
20260502003150 39 323 0.0 0.0 0.00 0.42 0.42 90 1016.2
20260502002645 39 323 0.0 0.0 0.00 0.42 0.42 89 1016.1
20260502002144 40 323 0.0 0.0 0.00 0.42 0.42 88 1016.0
20260502001641 40 323 0.0 0.0 0.00 0.42 0.42 86 1015.9
20260502001138 40 323 0.0 0.0 0.00 0.42 0.42 85 1015.8
20260502000636 41 323 0.0 0.0 0.00 0.42 0.42 84 1016.1
20260502000133 41 323 0.0 0.0 0.00 0.42 0.42 82 1015.9
20260501235629 42 323 0.0 0.0 0.00 0.42 0.42 80 1015.7
20260501235125 42 323 1.0 1.0 0.00 0.42 0.42 78 1016.0
20260501234621 43 313 0.0 0.0 0.00 0.42 0.42 77 1015.8
20260501234118 43 331 0.0 0.0 0.00 0.42 0.42 77 1015.8
20260501233616 43 9 1.0 1.0 0.00 0.42 0.42 78 1015.7
20260501233114 43 22 0.0 0.0 0.00 0.42 0.42 77 1015.7
20260501232609 43 1 1.0 0.0 0.00 0.42 0.42 78 1015.7
20260501232107 43 325 0.0 0.0 0.00 0.42 0.42 78 1015.8
20260501231604 43 323 2.0 2.0 0.00 0.42 0.42 77 1015.8
20260501231102 43 347 1.0 1.0 0.00 0.42 0.42 76 1015.6
20260501230601 43 356 1.0 1.0 0.00 0.42 0.42 76 1015.7
20260501230059 43 337 1.0 2.0 0.00 0.42 0.42 74 1015.8
20260501225556 44 44 1.0 1.0 0.00 0.42 0.42 75 1015.7
20260501225052 44 245 0.0 0.0 0.00 0.42 0.42 75 1015.6
20260501224550 44 294 2.0 2.0 0.00 0.42 0.42 75 1015.5
20260501224046 43 334 2.0 2.0 0.00 0.42 0.42 76 1015.6
20260501223543 43 314 3.0 2.0 0.00 0.42 0.42 73 1015.3
20260501223039 44 291 4.0 6.0 0.00 0.42 0.42 72 1015.4
20260501222535 44 357 2.0 2.0 0.00 0.42 0.42 75 1015.3
20260501222033 44 3 1.0 1.0 0.00 0.42 0.42 76 1015.1
20260501221529 44 319 2.0 2.0 0.00 0.42 0.42 73 1015.3
20260501221027 44 33 0.0 0.0 0.00 0.42 0.42 75 1015.5
20260501220524 44 9 0.0 1.0 0.00 0.42 0.42 74 1015.3
20260501220021 44 289 2.0 2.0 0.00 0.42 0.42 77 1015.3
20260501215517 44 327 2.0 3.0 0.00 0.42 0.42 79 1015.3
20260501215012 43 333 3.0 3.0 0.00 0.42 0.42 79 1015.3
20260501214508 43 10 3.0 5.0 0.00 0.42 0.42 78 1015.1
20260501214004 43 19 1.0 1.0 0.00 0.42 0.42 80 1015.2
20260501213501 43 346 2.0 2.0 0.00 0.42 0.42 80 1015.3
20260501212956 44 290 1.0 2.0 0.00 0.42 0.42 79 1015.1
20260501212453 44 8 1.0 1.0 0.00 0.42 0.42 80 1015.2
20260501211950 44 307 2.0 2.0 0.00 0.42 0.42 84 1014.8
20260501211447 44 20 3.0 3.0 0.00 0.42 0.42 82 1015.0
20260501210945 43 15 3.0 3.0 0.00 0.42 0.42 82 1015.1
20260501210441 44 258 5.0 7.0 0.00 0.42 0.42 83 1014.9
20260501205938 43 32 1.0 1.0 0.00 0.42 0.42 82 1014.9
20260501205435 43 80 0.0 0.0 0.00 0.42 0.42 84 1014.9
20260501204932 43 35 1.0 2.0 0.00 0.42 0.42 87 1014.6
20260501204428 42 314 2.0 2.0 0.00 0.42 0.42 88 1014.7
20260501203924 42 33 0.0 0.0 0.00 0.42 0.42 90 1014.6
20260501203421 41 79 0.0 0.0 0.00 0.42 0.42 93 1014.8
20260501202919 41 26 1.0 1.0 0.00 0.42 0.42 92 1014.7
20260501202415 40 23 1.0 1.0 0.00 0.42 0.42 92 1014.7
20260501201912 40 13 2.0 1.0 0.00 0.42 0.42 92 1014.8
20260501201409 40 0 3.0 5.0 0.00 0.42 0.42 91 1014.7
20260501200905 40 248 2.0 3.0 0.00 0.42 0.42 92 1015.0
20260501200402 40 6 3.0 3.0 0.00 0.42 0.42 92 1014.7
20260501195900 40 2 3.0 3.0 0.00 0.42 0.42 92 1014.7
20260501195356 40 33 0.0 1.0 0.00 0.42 0.42 92 1014.7
20260501194852 40 4 2.0 3.0 0.00 0.42 0.42 92 1014.4
20260501194348 40 10 1.0 1.0 0.00 0.42 0.42 93 1014.5
20260501193844 41 352 3.0 3.0 0.00 0.42 0.42 93 1014.2
20260501193343 41 32 2.0 2.0 0.00 0.42 0.42 92 1014.4
20260501192840 41 24 3.0 5.0 0.05 0.42 0.42 92 1014.4
20260501192337 41 7 3.0 3.0 0.05 0.42 0.42 92 1014.3
20260501191834 42 17 0.0 1.0 0.00 0.41 0.41 92 1014.3
20260501191331 42 23 1.0 1.0 0.00 0.41 0.41 92 1014.4
20260501190828 42 351 2.0 2.0 0.07 0.41 0.41 93 1014.1
20260501190324 42 44 1.0 1.0 0.07 0.41 0.41 93 1014.3
20260501185819 42 35 2.0 2.0 0.05 0.40 0.40 93 1013.9
20260501185316 42 26 0.0 1.0 0.12 0.40 0.40 93 1014.1
20260501184812 42 299 1.0 1.0 0.12 0.39 0.39 93 1014.1
20260501184308 42 60 0.0 0.0 0.05 0.38 0.38 93 1014.0
20260501183803 41 30 0.0 0.0 0.00 0.37 0.37 93 1014.0
20260501183301 41 31 0.0 0.0 0.00 0.37 0.37 92 1014.0
20260501182757 41 26 1.0 1.0 0.07 0.37 0.37 92 1013.9
20260501182254 41 3 0.0 0.0 0.07 0.37 0.37 92 1014.0
20260501181751 41 48 0.0 0.0 0.00 0.36 0.36 92 1013.6
20260501181248 41 3 1.0 1.0 0.00 0.36 0.36 92 1013.6
20260501180746 42 10 1.0 1.0 0.00 0.36 0.36 92 1013.6
20260501180241 42 2 1.0 1.0 0.00 0.36 0.36 93 1013.8
20260501175738 42 11 0.0 1.0 0.05 0.36 0.36 93 1013.6
20260501175236 41 359 2.0 2.0 0.05 0.36 0.36 93 1013.6
20260501174732 42 358 5.0 7.0 0.07 0.35 0.35 93 1013.7
20260501174229 42 23 0.0 0.0 0.05 0.34 0.34 93 1013.4
20260501173727 42 23 1.0 1.0 0.05 0.34 0.34 93 1013.8
20260501173224 42 19 2.0 2.0 0.00 0.33 0.33 93 1013.4
20260501172720 42 18 5.0 7.0 0.00 0.33 0.33 93 1013.5
20260501172215 42 40 0.0 0.0 0.07 0.33 0.33 93 1013.6
20260501171711 42 13 0.0 0.0 0.07 0.33 0.33 93 1013.4
20260501171209 42 298 2.0 2.0 0.00 0.32 0.32 93 1013.4
20260501170705 42 11 0.0 1.0 0.00 0.32 0.32 92 1013.2